COSMOS 252 DEB, 3549

Orbit data source: Space-Track

COSMOS 252 DEB, 3549 is space debris in LEO originally from a launch on Fri, 01 Nov 1968 UTC launched from the Tyuratam Missile And Space Complex (TTMTR). Debris objects in space refer to the collection of defunct objects orbiting the Earth. Examples of debris include non-operational satellites, rocket bodies, and fragments generated from explosions, collisions, or faulty payload assembly.

Loading next visibility...
Identifier
3549, 1968-097B
Orbit
LEO
Country
Flag of CISCIS
Related business
Manufacturer
Unknown
Mission
Spacecraft
Bus & Motor
Unknown
Mass
Unknown
Launch date (UTC)
1968-11-01 (58 years ago)
Launch vehicle
Unknown
Launch site
Tyuratam Missile And Space Complex (TTMTR)
Object type
Payload
Rocket body
Debris
Shape & HBR
Unknown shape, 0.1 m
Radar Cross Section
Medium (>0.1 m² and <1 m²)

Expand to show TLE details & history
Last TLE update: 1 day ago

TLE from 1 day ago
0 COSMOS 252 DEB
1 03549U 68097B   26263.02137414  .00009140  00000-0  89088-3 0  9992
2 03549  62.2969 257.0333 0279553  13.5012 347.3347 14.68038028883957
Epoch: 2026-09-20T00:30Z
TLE epoch observation values (Epoch: 2026-09-20T00:30:46.725Z)
Latitude
-0.00002°
Longitude
-109.58294°
Altitude
477.204 km
Speed
7.731 km/s
True Right ascension
17h 08m 07s
True Declination
0° 00' 00"
Sunlit
Object was in daylight at epoch
Visualization orbit readout
Latitude
Unknown
Longitude
Unknown
Altitude
Unknown
Speed
Unknown
Apparent Right ascension
Unknown
Apparent Declination
Unknown
Sunlit
N/A
Visualization observer readout
Local Sidereal Time
21:06:08
Azimuth
Unknown
Elevation
Unknown
Doppler factor
Unknown
Orbital elements
Apogee altitude
863.17 km
Perigee altitude
469.315 km
Semi-major axis
7,044.38 km
Eccentricity
0.02796
Inclination
62.2969°
RAAN
257.0333°
Arg. of periapsis
13.5012°
True anomaly
346.60759°
Mean anomaly
347.3347°
Eccentric anomaly
346.97367°
Mean motion
3.67095 °/min
Orbital period
98.07 mins
BSTAR
0.00089088

Documentation

Showing up to 5 results
|